Location: Ozark
(37.5425°N, 88.7628°W)
Time: 22:09:01
(UTC+00:00)

STARLINK-1045 - Pass Details

Date: 26 January 2020
Orbit: 548 x 551 km, 53.0° (Epoch: 19 February)

Event Time Altitude Azimuth Distance (km) Brightness Sun altitude
Exits shadow 12:15:44 - 250° (WSW) 2,008 6.0 -9.7°
Reaches altitude 10° 12:16:15 10° 252° (WSW) 1,815 5.8 -9.6°
Maximum altitude 12:20:11 42° 324° (NW) 793 4.1 -8.9°
Drops below altitude 10° 12:24:07 10° 36° (NE) 1,825 6.5 -8.1°
Sets 12:26:27 0° 43° (NE) 2,721 7.5 -7.7°
